loading
|
Showing default

EXPLORER 25 (INJUN-4), 932

Orbit data source: Space-Track

EXPLORER 25 (INJUN-4), 932 is a payload satellite owned by NASA LaRC (US) in LEO that was launched on Sat, 21 Nov 1964 UTC via an SCOUT X-4 launch vehicle from the Air Force Western Test Range (AFWTR). Payloads include a variety of satellites, spacecraft, and rockets equipped with specific instruments for various scientific and technological missions. These include communications satellites like Starlink; space stations such as the ISS; scientific satellites like the Hubble; Earth observation satellites from companies like Planet Labs, Umbra, and HawkEye 360; GPS; miniature CubeSats for education and research; and military/defense satellites.

Loading next visibility...
Loading greatness...
EXPLORER 25 (INJUN-4) details
Identifier
932, 1964-076B
Orbit
LEO
Last TLE update20 hours ago
Origin
Flag of USNASA LaRC (US)
ManufacturerBENDX/UIA
Mission statusUnknown
MissionCivil Science
Bus & MotorBENDIX UTILITY, Unknown motor
Mass41 kg wet, 41 kg dry
Launch date (UTC)
1964-11-21 (60 years ago)
Launch vehicle
SCOUT X-4
Launch site
Air Force Western Test Range (AFWTR)
Object type
Payload
Rocket body
Debris
Radar Cross Section0.5 m², Medium (>0.1 m² and < 1m²)

Expand to show TLE details & history

TLE from 20 hours ago
0 EXPLORER 25 (INJUN-4)
1   932U 64076B   24250.84228802  .00002189  00000-0  78671-3 0  9996
2   932  81.3445 157.0863 1123113 297.8554  51.3174 12.65911475736652
Epoch: 2024-09-06T20:12Z
Definitive object data (Epoch: 2024-09-06T20:12:53.684Z)
Latitude-0.00006°
Longitude-132.54642°
Altitude921.758 km
Speed7.615 km/s
True Right ascension10h 28m 20s
True Declination0° 00' 00"
Sunlit
Object was in daylight at TLE epoch
Predictive object data (real-time)
Latitude-45.1042°
Longitude55.54737°
Altitude1,039.36 km
Speed7.507 km/s
Apparent Right ascension21h 51m 49s
Apparent Declination-43° 56' 17"
Sunlit
Object is in full shadow
Predictive observer data (real-time)
Local Sidereal Time08:37:54
Azimuth247.623° W
Elevation-75.711°
Doppler factor1
Orbital elements
Apogee2,269.073 km
Perigee522.837 km
Semi-major axis7,774.092 km
Eccentricity0.1123113
Inclination81.3445°
RAAN157.0863°
Arg. of periapsis297.8554°
True anomaly62.25853°
Mean anomaly51.3174°
Eccentric anomaly56.69551°
Mean motion3.16642 °/min
BSTAR0.00078671
Period113.69 mins
No data available

EXPLORER 25 (INJUN-4) Visibility forecast

Observer location: 39.9160978°, -105.1181434

EXPLORER 25 (INJUN-4) is not visible in the next 10 days
Span
Click to sort rows by Start time (UTC) header in descending order
Start Az.
Max El. time (UTC)
Max El. Az.
Max El.
End time (UTC)
End Az.